sat.trackr.live / text

‹ back to catalog

MISR-C-1

NORAD 68628 · 2026-074B

PAYLOAD ACTIVE UNKNOWN

§ Identity

Operator
Country
US
Launch date
2026-04-07
Launch site
AFWTR
Launch vehicle
Mass (kg)
RCS (m²)

External: N2YO · Heavens-Above · Gunter

§ Orbital elements

Epoch: 2026-09-19T23:50:16.558944Z

Period
94.38 min
Inclination
60.0218°
Eccentricity
0.0035122
Mean motion
15.25694910 rev/d
Perigee alt
464.6 km
Apogee alt
512.8 km
Semi-major
6,866.8 km
B*
2.8087e-4
RAAN
174.2984°
Arg perigee
84.4540°
Mean anomaly
276.0545°
Rev number
2,523

§ Raw data

MISR-C-11 68628U 26074B   26262.99324721  .00007048  00000+0  28087-3 0  99902 68628  60.0218 174.2984 0035122  84.4540 276.0545 15.25694910 25235

JSON: /api/v1/satellites/68628 · /tle

For live sub-satellite position, see the globe view (requires WebGL).

§ Visibility from observer

Set your observer location to see the next 7 days of passes ≥ 10°. The values pass through the URL so the page stays shareable.

No JS? Fill the form by hand. The geolocation button needs JavaScript.